Theta_e
313 310 309 308 307 308 308 309 309 310 311 310 308 311 314 311 307 308 314 317 313 312 315 315 314 313 311 309 310 310 309 310 311 311 311 311 311 310 310 310 310 309 310 309 305 304 305 306 306 306 306 306 306 306 305 305 305 306 308 310 313 318 321 321 321 321 321 320 319 319 318 318 317 316 314 314 314 314 314 314 314 313 311 310 309 309 309
311 310 310 309 307 308 308 308 309 308 309 310 308 311 313 310 308 308 309 312 313 312 314 315 312 308 307 308 309 309 309 311 313 312 311 311 311 311 310 310 310 310 310 307 304 304 305 305 305 306 305 306 306 305 306 305 305 305 307 308 309 311 315 319 320 322 321 320 320 319 319 319 318 316 314 313 314 314 314 313 313 312 310 310 309 309 309
309 311 311 308 307 308 307 307 310 308 308 308 307 307 309 308 308 308 307 308 309 308 309 309 307 306 306 309 311 311 310 311 312 311 310 310 310 310 310 311 311 311 310 306 302 303 304 304 304 305 305 305 305 305 305 305 305 306 307 308 309 309 311 313 316 320 321 320 320 319 319 319 319 316 314 313 314 314 313 312 312 311 310 310 310 309 308
307 309 309 308 307 306 304 304 307 307 308 310 309 307 308 308 308 307 307 306 308 312 310 306 307 309 310 311 312 313 311 311 311 311 310 310 310 310 310 310 311 311 312 309 304 303 304 304 304 304 304 305 305 305 305 305 305 306 307 308 309 309 309 310 311 315 319 320 319 319 319 319 317 315 313 313 313 313 313 312 311 310 310 310 309 307 306
306 307 307 308 307 305 306 308 307 307 307 308 309 308 307 308 307 307 308 306 309 314 311 306 309 312 311 312 314 312 310 310 310 310 309 309 310 311 310 309 310 309 308 306 304 303 304 304 304 304 304 304 304 304 305 305 306 307 308 308 309 309 309 309 310 312 315 318 318 318 318 317 315 314 313 312 312 311 312 311 311 310 310 309 307 305 303
308 306 303 305 306 304 308 311 308 306 305 305 306 307 307 307 307 307 307 305 307 312 312 310 313 313 311 311 311 309 309 311 311 309 309 310 311 311 311 310 310 306 302 302 304 304 304 304 304 304 304 304 304 305 305 306 306 307 307 308 308 309 309 309 310 310 312 316 317 317 317 315 314 313 312 311 311 311 311 311 310 310 309 307 304 303 301
306 304 302 305 306 303 306 309 305 303 304 304 305 306 307 308 307 306 305 306 308 312 312 312 313 314 312 310 310 312 312 311 310 309 310 310 311 312 312 312 309 303 300 303 304 304 304 304 304 304 304 304 304 305 306 306 306 306 307 307 308 308 308 309 309 310 311 313 315 315 314 313 312 311 311 311 311 311 311 310 310 308 306 304 302 301 300
303 303 304 307 305 303 305 308 306 305 306 304 304 305 306 305 305 305 305 308 310 310 311 311 311 311 310 309 311 313 312 312 311 310 309 311 311 310 308 307 305 302 302 304 304 304 304 304 303 304 304 304 304 305 305 306 306 306 306 307 307 307 308 308 309 310 311 312 313 314 313 312 311 310 310 310 311 311 310 309 308 306 304 302 301 299 298
303 304 306 306 303 303 306 308 306 305 305 304 303 304 305 304 304 306 306 307 309 309 311 312 309 308 308 309 310 310 310 311 311 308 306 307 308 305 303 303 303 302 304 305 304 304 304 303 303 304 304 304 304 304 305 305 306 306 306 306 307 306 307 308 308 309 310 311 312 312 311 311 310 310 310 310 310 310 309 307 305 303 302 300 299 298 296
303 303 305 305 304 306 308 307 305 304 305 303 301 302 304 304 303 305 305 305 308 310 311 310 307 306 306 307 308 309 309 310 310 307 302 299 301 302 302 302 303 303 304 303 302 302 302 302 303 304 304 305 304 304 305 305 305 305 305 305 306 306 307 307 308 309 310 311 312 311 310 310 309 309 310 310 309 309 308 305 302 301 299 298 296 295 294
303 303 304 305 306 307 306 306 306 305 304 302 301 303 306 303 302 305 304 303 305 308 309 308 305 304 305 306 308 307 306 306 307 307 303 298 299 303 303 302 302 303 303 302 301 302 302 302 303 304 304 305 304 304 305 306 305 305 305 305 306 306 306 307 308 309 310 310 311 310 308 307 305 304 304 305 306 306 304 302 300 298 297 296 295 295 294
305 304 304 305 304 305 305 305 307 307 303 301 302 307 308 304 303 305 303 302 304 305 306 306 305 305 306 306 305 304 302 300 300 302 303 301 300 301 302 302 302 302 302 301 301 301 302 302 303 304 305 305 304 305 305 305 305 305 305 305 306 306 306 307 308 309 310 309 309 308 307 306 304 303 301 300 301 301 300 299 298 297 296 296 295 295 294
305 303 303 304 304 304 305 305 307 306 302 302 305 309 308 304 304 304 302 303 305 304 304 304 305 306 306 305 305 306 304 302 301 299 300 300 300 300 301 302 302 301 301 300 300 301 302 303 303 304 305 305 304 305 305 305 305 305 305 305 305 305 306 307 308 308 308 307 307 306 305 304 304 302 300 298 298 297 297 297 297 296 296 295 295 294 294
304 303 303 303 303 304 304 306 307 304 301 303 306 307 304 303 304 304 302 303 303 302 304 304 304 304 304 304 304 304 304 304 303 300 298 298 299 300 301 301 301 300 300 300 300 301 302 302 303 304 304 304 304 305 305 305 305 305 305 305 305 305 306 306 307 306 305 304 304 303 302 301 300 298 297 297 296 296 296 296 296 295 295 295 294 293 293
301 302 303 302 303 303 303 303 303 302 301 303 303 302 302 303 304 303 303 304 303 303 304 304 304 304 304 303 303 302 303 303 302 299 297 297 297 298 299 300 300 300 299 299 300 301 301 302 302 303 304 304 305 305 304 305 305 304 304 305 305 305 305 305 304 303 302 302 302 301 301 299 297 297 296 296 296 296 296 296 296 295 295 295 293 292 292
300 302 304 305 305 303 303 302 300 300 301 300 299 300 302 304 304 303 302 303 304 304 304 304 304 303 303 303 303 302 302 303 302 299 297 296 297 298 298 299 300 300 299 299 300 300 301 302 302 304 304 305 305 304 303 303 303 303 304 304 304 304 303 303 301 301 301 301 299 299 298 297 296 296 296 296 296 296 296 296 296 296 295 294 293 293 293
299 301 302 303 302 302 302 304 304 302 300 298 299 300 302 303 304 304 302 301 303 304 303 303 304 303 303 303 302 302 302 302 302 300 298 297 298 298 298 299 300 300 299 300 300 300 301 302 302 304 305 303 303 301 301 301 301 302 303 303 302 302 301 301 300 300 300 299 297 296 296 296 296 296 296 296 296 296 296 296 296 295 295 294 294 293 293
299 299 298 297 298 299 301 302 302 301 298 297 298 300 302 303 303 302 301 300 301 302 302 302 302 302 303 302 302 301 301 301 301 299 297 297 298 298 298 299 300 300 300 300 300 300 301 302 303 304 303 301 300 300 299 300 301 301 302 301 301 300 299 299 299 299 298 297 296 296 296 297 297 296 297 297 296 296 296 296 296 295 294 294 294 293 293
298 299 299 298 297 299 298 298 298 297 297 296 297 299 301 301 300 300 300 300 301 301 301 301 301 301 301 301 301 301 300 301 301 299 297 297 298 298 299 300 300 300 300 300 300 301 301 302 304 303 302 300 299 299 299 299 300 300 300 299 299 298 298 298 298 297 297 297 297 297 297 297 297 297 297 297 296 296 296 295 295 294 294 293 293 293 293
297 298 299 297 296 297 296 296 296 296 296 297 298 299 299 298 298 298 298 298 299 300 300 300 301 300 300 300 300 300 300 300 300 298 296 296 298 298 299 300 300 300 300 300 301 301 301 303 303 302 301 300 299 299 298 298 298 298 298 298 298 298 297 297 297 297 297 297 297 297 297 297 297 297 296 296 296 295 295 294 294 293 293 293 293 293 293
297 297 297 296 296 296 297 297 297 297 297 298 298 298 297 297 297 298 297 296 296 298 298 299 300 299 299 300 299 299 299 299 299 297 296 297 298 299 300 301 301 300 301 301 301 301 302 303 303 301 300 300 299 299 298 297 297 297 297 297 297 298 298 298 298 298 298 298 298 297 297 297 296 296 296 296 295 294 294 293 293 294 293 292 292 291 291
297 297 296 296 296 296 296 296 296 297 297 297 296 296 296 296 296 297 298 296 295 295 295 296 297 298 298 298 298 299 299 298 297 296 296 297 298 299 300 300 301 301 301 302 302 302 302 303 302 301 300 300 299 299 298 297 297 296 296 296 297 298 298 297 297 297 297 297 297 297 297 297 296 296 295 295 294 294 293 293 293 293 292 291 291 291 290
297 296 296 295 295 295 295 295 295 296 296 295 295 295 295 295 296 296 297 297 297 296 295 294 295 298 298 297 296 298 298 296 296 296 297 297 298 299 300 300 300 301 302 302 302 303 303 304 302 300 300 300 299 299 299 298 297 296 296 297 297 297 297 296 296 296 297 297 297 297 297 296 296 295 295 294 294 294 293 293 293 292 292 292 292 292 291
296 295 295 295 295 295 295 295 295 295 294 295 295 294 294 295 295 295 296 297 296 297 298 295 294 296 296 294 295 298 298 296 295 296 298 298 298 299 299 299 300 301 301 301 302 303 304 304 302 301 300 300 299 299 299 298 297 297 297 297 297 296 295 296 296 296 297 297 297 297 297 296 295 295 294 294 294 293 293 293 293 293 293 293 292 292 292
295 295 294 294 294 294 294 294 294 294 294 294 295 295 295 295 295 295 296 297 296 296 298 298 296 295 295 293 294 296 296 295 296 297 298 299 299 298 298 299 300 301 301 301 302 304 304 304 302 301 300 300 300 300 299 298 298 298 297 297 296 296 295 296 296 297 297 297 297 297 296 296 296 295 294 294 294 294 294 294 294 293 293 293 293 292 292
294 293 293 293 293 293 293 294 294 294 294 294 294 295 294 294 295 295 296 296 295 295 296 296 296 296 295 294 294 293 293 295 297 298 297 297 297 297 298 299 300 301 301 301 302 304 304 303 302 300 300 300 300 300 299 299 299 299 298 297 296 296 296 297 297 298 298 298 297 297 296 295 295 294 294 294 294 294 294 294 294 294 293 293 293 292 292
293 293 293 293 294 294 294 294 295 295 294 293 293 294 294 293 294 295 294 295 295 295 294 294 294 294 294 294 293 293 295 296 297 297 297 296 297 297 298 299 300 301 301 302 303 303 303 302 301 300 300 300 300 300 300 300 299 299 298 297 296 296 297 297 298 298 298 298 297 296 295 295 295 294 294 294 294 294 294 294 294 293 293 293 293 292 291
294 294 294 294 294 295 295 294 294 294 293 293 294 294 294 294 294 295 296 297 296 295 294 294 292 291 293 295 295 295 296 296 295 295 295 296 296 297 299 300 300 301 301 302 302 302 302 301 300 299 299 300 300 301 300 300 299 298 297 297 297 297 297 298 298 298 298 298 297 296 295 295 295 294 294 294 294 294 294 294 293 293 293 293 293 291 290
295 295 294 294 294 294 295 295 294 294 295 295 294 293 293 295 296 297 297 297 296 295 295 294 292 292 294 296 296 295 295 294 293 293 293 294 294 296 298 299 299 300 300 301 301 301 301 300 299 299 299 300 300 301 300 300 300 299 297 297 297 297 298 298 298 298 298 298 298 297 296 296 295 295 295 295 295 295 294 294 293 293 293 293 293 292 291
295 295 294 295 295 295 296 295 295 296 295 295 294 294 294 296 296 296 297 296 296 297 297 295 294 295 295 295 294 293 293 293 292 292 292 292 292 294 295 296 297 297 297 298 299 300 300 299 299 299 299 300 300 301 301 301 300 299 298 297 297 298 299 299 298 298 298 298 298 297 297 296 296 296 296 296 295 295 294 294 293 293 293 293 292 292 291
295 294 294 295 295 296 296 296 295 295 295 294 294 295 295 295 295 296 297 296 296 298 297 296 295 295 294 293 292 292 292 292 291 291 291 291 291 292 293 293 294 293 293 295 296 297 298 298 298 298 299 300 300 301 301 301 300 298 297 297 298 299 299 299 298 298 298 297 297 297 296 297 297 297 296 296 295 294 294 294 294 293 293 293 292 292 291
295 294 294 295 295 294 295 295 295 295 294 294 294 294 294 295 296 297 296 295 296 297 296 295 294 293 292 292 292 292 291 291 291 291 291 291 291 291 291 292 292 292 292 293 294 296 297 297 296 297 298 299 299 299 299 300 299 297 297 298 298 298 298 298 298 298 297 297 297 297 297 297 297 297 296 296 295 295 295 295 294 293 292 292 292 291 291
295 294 294 294 294 294 294 294 294 294 294 294 294 294 295 296 297 296 295 294 295 295 294 293 292 292 291 291 291 291 291 291 290 290 290 290 291 291 291 291 291 291 291 292 293 294 295 295 295 296 297 297 297 297 297 298 298 297 298 298 298 298 297 297 298 298 298 298 298 298 297 297 297 296 296 295 295 295 295 294 293 292 292 292 292 291 290
294 294 294 294 294 294 294 294 294 294 294 294 295 296 296 296 296 295 294 293 293 293 292 292 291 291 291 290 290 290 290 290 290 289 289 289 290 291 291 291 291 291 290 291 292 292 293 294 295 296 297 297 297 297 297 298 298 298 298 298 297 297 297 297 298 298 298 297 297 296 296 296 295 295 294 294 294 293 293 292 292 292 292 292 291 290 290
294 294 294 294 294 294 294 294 294 294 295 295 296 295 295 295 294 293 293 292 292 292 291 291 291 290 290 290 290 289 289 289 289 289 289 289 289 290 290 291 291 291 290 290 290 291 292 293 295 297 298 299 299 299 298 298 298 298 298 297 297 297 297 298 298 298 297 296 295 295 295 295 294 294 294 294 293 293 292 292 292 292 292 291 291 290 290
294 294 294 293 293 293 293 294 294 294 295 295 295 294 293 293 293 292 292 292 291 291 291 290 290 289 289 289 289 288 288 289 289 288 288 288 288 288 288 289 289 289 290 290 289 290 291 292 294 297 299 300 299 299 298 298 298 298 298 298 298 297 297 297 297 296 295 295 294 294 294 294 294 293 293 293 292 292 292 292 291 291 291 291 291 291 291
294 293 293 293 293 293 293 293 294 294 293 293 293 292 292 292 291 291 291 290 290 290 289 289 289 288 288 288 288 288 288 288 288 288 288 287 287 287 287 287 287 287 287 287 288 289 290 292 294 297 299 299 298 297 297 298 298 298 297 297 297 296 296 295 295 294 294 294 293 293 293 293 293 293 292 292 292 291 291 291 291 290 290 289 290 290 290
293 293 293 293 293 292 292 292 293 293 292 292 292 292 292 291 291 290 290 289 289 289 288 288 288 288 287 287 287 287 287 287 287 287 287 287 287 286 285 285 286 286 285 286 287 289 291 293 295 296 296 296 296 295 295 295 296 296 296 295 295 295 294 294 293 293 293 292 293 293 293 293 292 291 290 290 289 289 289 288 288 287 287 286 286 286 286
293 292 292 292 292 292 292 292 292 293 292 292 292 291 291 290 290 289 289 289 288 288 288 287 287 287 287 287 286 286 286 286 286 287 287 287 286 286 285 285 285 285 285 286 287 289 290 292 293 293 293 293 293 293 293 294 294 294 294 294 293 293 293 292 292 292 292 292 292 291 291 289 288 287 286 285 285 286 285 285 284 284 284 284 284 284 284
293 292 292 292 292 292 292 292 292 292 292 292 291 291 290 289 289 288 288 288 288 288 288 287 287 287 286 286 285 285 285 285 286 286 286 286 286 286 285 285 285 285 286 287 288 289 290 291 292 292 291 291 292 292 292 293 293 293 293 292 292 291 291 291 290 290 289 289 289 288 286 285 284 284 283 283 283 283 283 283 283 283 283 283 283 283 283
292 292 292 292 292 292 292 292 292 291 291 291 291 290 289 289 288 288 288 287 287 287 287 287 287 286 286 285 285 285 285 285 285 285 285 285 285 285 285 284 284 285 286 287 288 289 289 290 290 290 290 290 291 291 291 292 292 292 291 291 291 290 289 288 287 287 286 286 286 285 285 284 284 284 283 283 283 283 283 282 282 282 282 282 282 282 282
292 292 292 292 292 292 292 292 291 291 291 291 290 290 289 289 288 288 288 287 287 287 287 287 286 286 286 285 285 285 284 284 284 284 284 284 284 284 284 284 284 285 286 287 288 288 288 288 288 288 289 289 289 290 290 290 290 290 289 289 288 287 286 285 285 285 285 285 285 284 284 284 284 284 283 283 283 283 282 282 282 281 281 281 281 281 281
292 292 292 292 292 292 292 292 292 291 291 291 290 290 289 289 289 289 288 288 287 287 287 286 286 286 286 285 285 285 285 284 284 284 283 283 283 284 284 284 284 285 286 286 287 287 287 287 287 287 288 288 289 289 289 289 288 288 287 286 285 285 284 284 284 284 284 284 284 284 284 284 284 284 283 283 283 282 282 281 281 281 281 280 280 280 280
292 292 292 292 292 292 292 292 291 291 290 291 291 290 290 290 289 289 288 287 287 287 286 286 286 286 286 285 285 284 284 284 284 284 283 283 283 283 283 283 284 284 284 284 285 285 285 286 286 286 287 288 288 288 288 287 287 286 285 284 284 284 284 284 284 284 284 284 284 284 284 284 284 284 284 283 283 282 282 281 281 280 280 280 279 279 279
292 292 292 292 292 292 291 291 291 290 290 290 290 290 290 289 288 288 287 287 286 286 286 286 286 285 285 285 285 284 284 284 283 283 283 283 282 282 282 282 282 282 282 283 283 283 284 284 285 285 286 286 286 286 286 285 284 284 284 284 284 284 284 284 284 284 284 284 284 284 284 284 284 284 283 283 282 282 281 281 281 281 281 280 280 280 279
292 292 291 291 291 291 291 290 290 290 290 290 289 289 289 288 288 287 287 287 286 286 286 286 286 286 286 285 285 284 284 283 283 283 282 282 282 282 281 281 281 281 282 282 282 282 282 283 283 284 284 284 284 284 284 284 284 284 284 284 284 284 284 284 284 284 284 284 284 284 284 284 283 283 283 283 282 282 282 281 281 282 282 281 281 281 281
292 292 291 291 291 290 290 290 290 290 289 289 288 287 288 288 287 287 287 286 286 286 286 285 285 285 285 285 285 284 284 283 282 282 282 282 282 282 281 281 281 281 281 281 281 281 281 282 282 283 283 283 283 283 283 284 284 284 284 284 284 284 284 284 285 284 284 284 284 284 284 283 283 283 283 283 283 282 281 281 281 282 282 282 282 283 283
292 291 291 291 291 291 290 290 290 289 288 288 287 287 287 287 287 287 286 286 286 286 286 286 285 285 285 285 285 285 284 284 283 282 282 282 282 282 281 281 281 281 281 281 281 281 281 281 281 282 282 282 282 282 283 283 284 284 284 284 284 283 283 284 284 284 284 284 284 283 283 283 283 282 282 282 282 282 282 281 281 282 282 282 282 283 283
292 292 291 291 291 290 290 289 288 287 287 286 286 286 287 287 287 286 286 286 286 285 285 285 285 285 285 285 285 284 284 284 284 283 282 282 282 282 281 281 281 280 280 280 280 280 281 281 281 281 281 281 281 281 282 282 283 283 283 283 283 282 282 282 283 284 284 284 284 283 283 283 283 282 282 281 281 282 282 281 281 281 281 282 282 283 283
292 292 291 291 291 290 289 288 287 287 286 286 286 286 287 286 286 285 285 286 286 285 285 285 285 285 285 285 284 284 284 284 283 283 283 282 282 282 281 281 281 280 280 280 279 279 280 280 280 281 281 281 281 281 281 282 282 282 282 282 282 282 281 281 282 282 283 283 283 283 283 283 283 283 282 282 282 282 282 281 281 281 281 282 283 283 283
292 292 291 291 290 289 288 287 287 288 287 287 286 286 287 287 286 285 285 286 286 285 284 284 284 284 284 284 284 284 283 283 282 282 282 282 282 282 281 281 281 280 280 280 279 279 279 279 279 280 280 281 281 281 281 281 282 282 282 282 282 282 282 282 282 282 282 282 282 282 282 282 282 283 283 282 282 282 281 281 281 281 281 282 283 283 283
292 292 290 289 288 287 287 286 287 287 288 287 287 287 287 287 286 285 285 285 286 285 285 284 283 283 284 283 283 283 282 282 282 281 281 281 281 281 280 280 280 280 280 279 279 279 279 278 278 278 279 279 280 280 281 281 281 281 282 282 281 282 282 282 282 282 281 281 281 281 281 282 282 282 282 281 281 280 280 281 281 281 281 282 282 282 282
Wind_Speed
5 4 5 3 2 3 4 4 6 7 4 5 6 7 6 6 5 8 7 8 8 8 6 8 9 6 5 6 5 4 3 1 3 3 3 4 5 5 5 5 4 4 4 4 5 9 12 15 18 20 21 22 23 24 24 24 23 22 19 16 13 14 18 22 24 25 25 26 25 26 27 29 30 30 29 28 29 28 27 25 24 23 21 19 17 15 13
5 4 5 3 3 3 3 5 8 6 6 8 8 7 6 7 9 9 5 7 9 7 6 9 7 3 3 5 4 2 1 1 2 2 3 4 5 5 5 5 5 4 3 4 5 8 11 13 16 18 19 21 22 22 24 24 24 23 21 20 18 16 16 19 22 23 24 24 24 25 27 29 31 30 28 28 27 26 25 25 24 22 19 17 16 14 14
5 5 4 3 5 5 5 7 7 5 5 6 6 6 5 5 7 9 5 6 9 6 6 9 5 1 1 2 2 3 1 0 1 2 2 2 3 4 5 5 5 5 5 5 6 9 11 13 14 15 18 20 21 22 24 24 24 23 21 21 21 19 18 19 20 22 23 23 23 25 26 28 29 28 27 28 29 29 28 26 24 21 18 17 16 15 14
5 4 5 6 3 3 7 8 7 7 7 6 6 5 5 6 6 7 6 5 7 6 5 6 5 3 2 4 4 4 2 0 3 3 1 2 3 4 5 5 5 6 6 6 7 9 12 14 14 16 18 19 21 23 24 24 24 23 21 21 21 22 21 20 19 20 22 23 24 25 25 26 27 27 26 28 30 31 30 27 25 22 19 17 17 16 16
5 4 4 3 3 5 7 7 8 11 11 9 7 4 4 7 7 6 6 6 5 4 2 4 4 2 3 4 4 3 1 2 2 1 1 4 5 5 5 5 5 5 6 7 9 12 15 16 17 18 19 19 21 23 23 23 23 22 22 21 21 22 23 22 21 20 21 23 24 25 24 24 25 25 26 29 31 31 30 28 26 23 20 18 18 17 16
5 5 2 2 2 5 7 5 6 10 10 10 10 8 7 7 5 4 4 3 3 2 3 6 5 3 2 2 3 3 3 4 4 3 3 4 5 5 5 6 5 6 7 9 12 15 17 20 21 22 21 21 22 22 22 22 21 21 21 21 22 23 23 24 22 20 20 22 24 24 23 23 23 25 28 31 32 30 29 27 25 23 21 19 18 17 15
3 2 3 2 4 7 5 4 3 3 3 5 8 8 7 5 4 5 4 4 4 4 5 5 4 3 3 3 4 5 4 5 6 3 3 4 5 5 6 6 6 7 10 12 14 17 20 22 24 25 25 24 24 23 22 21 21 21 21 21 21 21 22 23 23 21 20 22 23 23 22 22 24 27 29 31 31 30 28 26 23 21 21 20 18 15 12
1 1 3 3 6 5 5 6 4 1 2 2 1 4 6 4 2 3 4 5 5 4 4 4 2 3 4 4 4 6 5 5 5 3 3 5 4 5 6 7 8 11 13 14 16 20 22 24 25 25 26 26 26 24 22 21 21 21 21 21 21 21 22 22 23 22 21 22 22 22 22 23 26 28 31 32 31 30 27 23 21 20 20 20 17 13 9
2 2 2 3 4 6 6 4 2 1 1 1 1 2 4 5 2 2 1 4 4 4 4 4 4 5 5 5 5 5 4 5 6 4 5 6 5 7 10 11 13 15 15 16 18 21 23 25 25 26 27 26 26 24 23 22 22 21 20 21 22 23 23 23 23 22 22 22 23 23 24 25 28 31 33 33 31 29 27 24 23 22 20 18 14 9 6
2 2 3 3 3 4 5 4 4 2 3 3 2 2 1 3 2 1 0 3 4 5 5 4 4 5 4 3 5 6 5 5 6 6 7 8 8 10 13 15 15 16 16 17 20 22 23 24 24 24 25 25 24 23 22 22 23 21 19 21 24 25 25 24 23 23 22 23 24 24 25 26 29 32 34 34 32 29 27 26 24 22 18 14 10 6 3
1 3 2 2 2 4 5 5 6 4 3 3 2 2 1 3 3 2 0 4 5 4 4 2 2 3 1 4 6 6 5 5 5 6 7 9 11 13 14 15 15 15 17 18 21 22 22 23 24 23 24 24 23 22 22 22 23 22 22 25 28 28 27 26 24 22 22 23 25 25 25 25 25 24 25 28 30 28 27 26 23 19 15 11 8 5 3
2 3 3 3 3 4 3 3 6 5 2 5 4 1 4 5 5 3 2 2 5 4 3 2 3 3 4 5 5 5 4 5 6 7 7 9 11 13 15 15 15 16 18 19 21 22 23 24 23 22 24 24 22 22 23 23 23 24 26 29 30 30 29 26 21 20 21 23 25 26 27 28 26 23 21 23 24 24 23 22 19 16 12 8 6 4 2
2 3 3 3 3 3 3 4 6 4 1 4 2 3 5 4 6 4 3 3 5 4 3 3 4 5 6 5 6 7 5 5 7 7 9 11 12 14 16 16 16 17 19 19 21 22 24 24 22 22 23 23 22 24 24 23 25 28 30 31 31 29 25 20 17 18 20 23 26 28 30 31 32 30 26 24 22 19 18 17 15 13 9 6 4 2 1
2 3 2 2 4 3 3 3 4 2 1 2 3 4 4 4 4 4 3 4 5 4 4 4 5 6 6 5 7 8 7 7 7 8 10 11 11 14 15 16 17 18 19 20 21 22 23 23 21 21 21 22 23 25 25 25 28 31 30 29 28 23 18 16 18 20 23 26 30 32 32 32 31 29 26 23 19 17 16 15 14 12 8 5 2 0 2
1 1 1 1 3 3 2 1 3 2 1 2 4 4 3 3 4 4 3 4 4 4 4 5 5 6 7 7 7 7 8 8 7 9 10 10 11 13 14 15 17 18 18 19 20 22 23 22 20 20 20 22 24 24 25 28 29 28 27 24 20 16 17 20 23 27 31 34 36 35 33 30 28 26 24 22 18 17 16 15 13 11 7 4 1 2 4
1 1 2 3 4 4 3 2 2 2 2 4 4 4 4 4 3 3 3 4 5 4 4 6 6 6 7 8 8 8 8 8 7 8 10 12 14 15 15 17 19 18 18 19 20 23 24 22 19 18 19 21 23 23 25 26 25 24 21 16 13 19 23 27 30 34 37 37 36 34 32 30 28 25 23 21 19 17 14 12 10 8 5 1 2 5 8
2 4 5 5 5 4 2 3 4 4 5 7 5 5 5 4 3 2 3 5 7 5 5 6 6 6 7 9 8 9 9 9 8 9 10 13 15 16 18 20 20 20 19 20 21 23 24 21 17 16 16 17 18 19 20 20 18 16 13 13 19 24 27 30 33 35 37 36 35 33 31 29 28 26 23 21 19 16 12 9 7 5 2 2 5 8 10
3 3 5 4 5 6 5 4 5 5 6 7 6 4 5 5 5 4 4 6 7 7 6 6 6 7 8 8 9 9 9 9 10 10 11 13 15 16 17 19 21 21 20 20 20 21 22 19 14 12 12 11 11 11 10 10 9 8 11 17 22 24 27 30 32 34 36 35 33 31 29 27 25 23 20 18 16 14 11 8 5 3 2 4 6 9 12
3 3 4 3 4 7 6 5 6 7 7 6 5 4 5 6 6 6 6 7 7 7 7 7 8 9 9 8 9 9 8 9 9 9 10 13 15 16 17 19 21 20 18 19 19 19 20 17 11 8 8 5 2 2 4 4 5 11 16 19 20 21 23 27 30 33 34 32 30 28 26 24 21 19 17 16 14 12 10 7 5 3 3 5 8 10 13
3 4 7 8 8 9 8 6 6 7 7 7 6 5 5 6 6 7 7 7 6 6 7 8 9 10 9 9 9 8 8 8 8 8 10 14 16 18 19 21 21 18 17 18 18 18 19 15 8 5 5 3 5 7 10 12 16 22 24 25 24 23 23 25 28 31 32 30 29 26 23 21 19 17 16 14 13 11 9 7 6 4 5 7 9 12 14
4 6 8 8 7 8 8 7 6 5 6 7 7 7 7 7 7 8 9 9 8 8 9 9 8 9 10 10 9 9 8 8 7 9 13 15 16 18 20 22 21 18 17 18 18 19 18 13 6 6 6 7 9 12 16 19 25 29 28 27 28 28 27 27 27 29 30 29 27 25 23 21 19 17 15 14 13 11 10 7 5 5 6 7 9 11 13
4 6 7 6 4 6 9 9 8 6 6 7 8 8 8 8 9 9 9 10 10 9 10 10 8 8 11 11 9 9 8 8 10 13 14 15 16 18 21 22 21 20 19 19 19 19 17 11 9 11 10 10 11 15 20 23 25 26 23 21 23 25 26 25 25 26 27 26 24 23 21 20 19 18 16 14 13 11 10 7 6 6 7 8 9 10 12
6 8 9 7 4 6 9 10 10 7 5 6 9 10 10 10 10 9 8 9 10 9 11 12 10 9 10 11 10 8 8 12 15 15 15 14 15 18 21 20 19 20 21 20 18 17 15 10 13 14 12 12 15 18 20 20 18 17 17 18 20 21 21 21 22 23 24 24 22 20 19 19 19 19 17 14 12 11 10 8 8 8 9 9 9 9 10
7 9 10 7 6 9 11 11 10 8 6 7 10 11 11 10 10 9 8 8 9 9 9 12 14 13 11 12 12 9 9 14 17 16 16 16 17 19 21 20 19 20 21 20 19 18 14 11 16 16 13 14 17 18 17 16 15 17 19 21 20 18 17 19 21 22 23 22 20 17 17 17 17 18 17 15 13 11 10 8 8 8 8 8 8 8 10
7 9 9 8 10 12 11 11 10 9 9 10 10 10 10 9 10 10 9 7 9 10 9 10 15 17 15 13 14 12 11 14 16 14 14 16 17 18 19 18 19 21 21 21 20 16 11 14 19 20 18 19 18 16 15 16 18 21 23 22 19 17 18 20 21 21 22 20 18 17 17 17 16 16 16 15 13 11 9 7 5 5 6 6 6 7 10
7 9 10 10 12 11 9 9 9 7 8 9 8 8 10 12 12 12 11 10 12 13 11 10 14 18 17 14 14 13 11 12 14 13 12 13 14 15 16 18 20 22 22 21 19 13 12 17 22 24 23 22 20 18 17 19 21 21 19 18 16 17 20 23 22 22 22 20 18 17 18 17 17 16 15 13 12 10 8 6 4 3 4 6 7 8 11
7 8 8 9 12 10 7 7 8 7 7 9 10 10 13 16 14 12 12 13 14 15 15 14 15 17 16 13 12 11 9 8 8 8 7 9 11 13 16 18 19 20 19 17 15 13 16 21 24 25 25 24 23 20 20 21 21 19 16 16 16 17 20 22 22 23 23 21 19 18 17 17 16 14 13 11 9 7 6 3 2 2 2 5 8 10 11
8 7 6 7 11 11 10 11 12 11 10 12 13 13 13 13 10 8 8 10 10 11 13 14 13 11 10 8 7 5 3 3 4 5 6 8 10 12 14 15 15 14 12 11 12 16 19 22 23 23 24 24 23 20 20 20 20 18 17 17 18 18 19 19 20 22 23 21 18 17 16 15 14 12 11 9 6 4 3 2 3 2 1 5 8 10 11
8 6 5 8 11 13 13 13 12 11 11 12 11 10 8 7 6 6 7 7 6 6 9 11 9 7 4 1 2 2 3 4 5 5 6 7 7 6 6 6 5 5 6 8 13 16 19 20 20 18 17 17 18 19 18 16 16 18 18 18 18 20 20 18 17 19 20 19 16 14 13 13 11 10 8 5 2 4 4 3 2 1 2 4 8 11 12
9 7 7 9 11 11 11 11 9 9 8 7 6 6 5 5 5 7 7 6 5 5 7 7 3 2 5 7 7 7 6 6 7 8 8 8 8 6 3 5 9 10 10 11 13 15 17 17 15 12 10 10 14 18 17 14 13 15 16 15 16 18 18 16 15 16 17 16 14 12 11 11 9 7 5 2 4 5 5 4 1 1 2 3 7 11 12
10 9 9 10 9 9 9 8 6 6 5 4 5 6 6 5 6 7 6 5 5 5 3 2 6 9 9 9 10 10 10 9 10 11 12 14 15 15 13 13 13 12 12 14 15 16 16 15 11 7 6 8 11 15 17 14 11 11 12 12 14 15 13 13 13 13 14 14 12 10 9 8 6 4 3 4 6 7 6 5 1 2 2 3 5 8 10
11 11 10 9 8 8 8 6 5 6 7 6 6 7 6 6 6 6 6 6 4 0 5 8 8 8 10 11 12 12 11 11 12 13 14 16 18 19 19 20 20 18 18 19 19 17 16 15 11 7 5 6 8 12 14 12 11 11 12 13 15 14 12 12 12 12 11 10 8 6 6 5 3 3 4 6 7 7 6 3 2 4 4 4 4 5 7
9 10 10 9 9 10 10 8 7 7 8 7 7 7 6 5 4 4 3 2 3 6 9 9 10 12 14 15 14 13 12 11 13 15 16 17 17 17 18 21 24 25 24 23 23 22 20 18 15 10 7 7 7 10 11 11 11 13 14 15 14 13 12 12 12 11 10 8 6 6 6 5 3 2 1 2 3 2 1 3 5 5 4 4 3 3 5
7 8 10 10 10 10 10 9 7 6 7 7 7 5 3 3 4 5 7 8 9 10 12 14 16 18 18 17 15 14 13 10 9 12 15 17 18 16 15 19 25 29 29 29 29 27 23 20 20 17 14 13 13 13 14 14 14 14 13 13 14 13 13 12 11 10 9 8 8 8 8 7 7 6 5 5 6 6 6 7 6 5 5 6 5 4 5
7 8 10 11 10 10 10 9 8 7 7 6 3 3 7 9 10 12 13 13 12 14 17 19 19 19 18 17 15 15 14 11 10 13 17 20 19 19 20 23 26 28 31 33 32 28 23 21 22 23 21 20 19 17 15 14 15 15 14 14 13 14 14 13 11 10 10 10 10 10 11 11 11 10 9 9 9 9 9 9 8 7 6 7 6 5 6
9 8 8 9 11 11 10 9 7 5 3 2 4 7 10 13 15 16 17 17 17 17 18 19 19 19 18 16 14 14 14 13 14 17 19 20 21 24 29 30 28 27 29 32 31 27 25 24 23 23 23 21 19 18 15 13 12 14 15 15 14 14 14 14 12 12 12 11 12 13 13 12 12 11 11 11 11 10 10 10 9 8 8 8 7 7 8
10 9 7 7 9 9 8 6 5 6 9 10 9 10 14 17 20 21 22 22 20 18 18 19 19 18 17 16 15 16 16 16 17 19 20 23 29 34 34 33 31 28 26 25 25 25 26 26 25 24 23 19 17 16 14 12 10 11 13 15 16 15 16 15 15 14 13 13 13 13 13 12 12 12 11 11 11 11 11 11 10 9 9 9 9 9 10
10 10 9 8 8 7 9 11 13 15 16 14 14 15 18 19 21 22 23 22 20 19 20 20 19 18 18 18 17 19 19 18 19 21 23 26 33 36 33 29 28 26 22 19 20 23 25 24 24 24 24 21 17 15 14 13 13 13 15 16 16 16 16 16 16 15 14 13 12 12 12 12 12 12 11 11 11 11 11 11 10 9 9 10 10 10 11
8 9 9 9 8 10 13 16 16 17 17 16 16 17 19 20 21 22 22 21 20 20 20 20 19 19 19 17 17 19 20 19 20 21 22 25 29 32 30 28 27 24 21 20 22 24 23 22 22 24 23 21 18 16 15 15 15 16 16 16 16 16 16 16 15 14 13 12 11 12 11 11 11 11 10 11 11 11 11 11 10 10 10 10 10 11 11
6 7 8 9 9 11 14 16 17 18 20 20 19 18 18 20 21 21 20 20 19 20 20 19 19 17 16 15 15 17 19 20 20 19 20 23 26 28 27 27 28 26 23 24 25 24 23 22 23 23 22 20 18 17 16 15 14 15 15 16 16 16 16 15 15 14 13 12 11 11 11 11 11 11 10 11 11 11 11 10 10 10 10 10 10 10 11
6 7 8 10 11 12 14 16 16 18 21 22 20 19 19 20 20 19 18 18 18 19 19 19 18 16 15 16 17 17 20 22 23 22 23 25 24 20 17 19 23 25 24 24 24 23 23 23 23 22 21 20 18 17 17 16 16 16 16 16 16 17 16 16 16 15 14 13 13 12 12 11 11 11 11 12 11 11 11 10 10 10 10 10 10 10 11
8 9 11 11 11 13 15 15 16 18 19 20 19 19 20 21 20 19 18 19 19 20 19 19 18 16 15 16 17 18 20 21 23 26 28 27 22 17 14 16 21 23 23 22 23 23 23 23 22 21 20 19 18 17 16 17 17 18 17 18 18 17 16 16 15 14 13 13 13 12 12 12 12 13 13 13 13 12 12 11 10 10 10 10 10 10 11
8 11 12 12 12 13 15 15 15 16 16 17 18 18 19 19 19 19 19 18 18 18 18 17 17 16 16 16 17 18 18 18 20 23 25 26 25 23 19 17 19 21 22 22 23 23 22 21 20 18 17 16 16 15 15 16 17 17 17 18 18 17 16 15 14 13 12 12 13 12 13 13 14 14 14 14 14 14 15 14 13 12 11 11 10 10 10
9 11 13 13 13 14 14 14 14 14 14 15 16 17 17 16 16 17 18 18 17 17 17 17 17 16 16 17 17 17 16 16 16 17 17 19 22 24 22 19 19 20 20 21 22 23 21 19 17 15 14 14 13 13 13 15 15 16 16 17 16 16 15 15 15 14 14 14 13 13 13 14 14 13 13 13 14 15 16 16 16 15 15 14 13 13 12
11 11 13 14 15 15 14 13 13 13 14 16 17 16 15 15 15 16 18 19 18 17 17 18 18 19 19 20 20 20 19 19 19 19 17 15 15 16 18 19 19 18 18 19 20 20 19 18 16 14 13 13 13 13 14 15 15 16 17 17 16 15 15 15 15 15 15 15 15 14 14 13 12 12 12 12 12 13 14 14 15 16 17 17 17 16 17
11 12 14 15 15 14 14 15 15 16 17 18 16 14 13 14 15 16 17 19 18 17 17 18 18 19 20 21 21 22 21 21 22 22 21 18 15 15 17 19 19 19 19 19 19 18 17 16 15 15 14 14 14 15 15 15 15 16 16 16 16 15 15 14 14 13 13 13 13 12 11 11 11 11 11 12 12 13 13 13 13 14 16 17 17 17 18
10 12 13 14 14 14 15 17 17 17 16 13 11 10 12 15 16 16 17 18 18 17 16 16 16 16 16 16 17 18 19 20 19 18 18 18 17 16 17 18 19 19 19 19 19 18 16 15 15 15 15 15 15 15 15 14 14 14 14 14 14 14 13 13 12 11 11 11 11 10 10 11 11 11 11 12 12 12 12 13 13 14 15 15 16 17 18
9 9 10 12 13 13 13 14 15 14 12 10 11 12 14 16 16 16 16 16 16 15 14 13 13 12 12 12 12 13 14 14 13 12 12 13 14 15 15 17 17 17 18 19 20 19 17 16 16 16 16 16 17 16 14 14 13 13 13 12 12 12 12 12 11 11 10 10 10 11 11 11 11 10 11 11 11 11 11 12 12 13 14 15 15 16 16
9 6 5 7 9 9 9 10 10 9 9 12 14 15 16 17 16 15 15 15 16 15 15 14 14 13 13 13 12 12 12 12 12 11 10 11 12 12 13 14 15 16 17 18 19 20 19 18 17 17 17 17 17 16 14 13 13 12 12 11 10 10 10 10 10 9 9 9 9 9 10 10 9 9 10 10 10 10 10 10 11 12 13 14 15 16 16
10 7 5 5 6 7 8 9 10 11 12 14 16 16 15 15 14 13 13 14 15 15 15 15 14 14 13 13 12 12 12 13 13 12 10 9 9 9 10 11 13 14 15 17 18 19 19 18 17 16 15 15 15 15 13 12 11 11 11 11 10 9 9 8 8 8 8 8 7 7 7 7 7 8 8 8 8 9 9 9 9 10 11 13 15 16 16
13 11 10 9 10 10 10 10 12 14 15 16 16 15 14 14 13 12 12 12 13 14 15 14 13 12 11 11 11 11 11 11 11 10 10 9 8 8 8 9 9 11 12 14 16 17 18 18 18 16 14 13 13 13 12 11 10 10 10 10 10 10 9 9 9 9 8 8 7 7 7 7 7 7 7 7 8 9 9 9 9 9 10 12 14 15 15
15 13 11 11 11 10 9 9 12 15 16 16 16 15 13 13 14 13 11 10 11 13 14 13 12 10 9 9 9 10 9 9 9 9 9 9 8 7 7 7 7 8 10 12 13 13 15 16 17 17 16 14 12 11 11 10 10 11 11 11 10 10 9 9 9 9 9 8 8 7 7 7 7 7 7 8 9 10 10 10 9 9 10 11 12 13 13
Wind_Direction
268 246 249 244 182 237 246 225 238 249 223 185 190 209 200 156 179 248 231 183 208 237 236 246 248 240 257 266 263 260 255 313 6 16 16 12 6 1 5 2 356 358 352 345 357 5 7 5 1 358 355 354 353 350 348 348 347 347 346 340 323 295 274 262 257 255 253 251 248 245 245 244 243 240 236 232 225 216 209 206 206 206 206 206 206 205 206
303 278 260 236 199 251 280 247 242 242 217 205 212 225 207 187 219 245 217 195 227 232 220 236 233 185 224 270 303 293 238 359 11 39 42 16 355 345 345 337 324 319 316 323 345 356 1 359 354 349 345 344 343 339 338 339 339 340 338 334 330 317 297 283 273 264 256 251 248 247 247 247 245 239 231 224 217 210 206 204 201 201 202 202 203 206 207
298 285 279 242 192 204 244 256 252 247 243 233 229 233 216 203 243 256 236 233 252 248 227 242 267 349 204 227 279 267 255 169 148 125 79 356 323 318 319 317 313 314 318 333 350 353 351 348 345 341 336 334 331 329 328 329 330 332 330 326 324 318 308 300 291 277 264 254 250 250 248 246 243 235 224 216 210 204 200 197 196 196 196 198 204 208 205
269 258 271 273 276 264 257 258 251 236 234 230 221 215 196 190 224 252 254 250 256 255 234 241 275 299 190 188 218 244 289 312 149 125 67 321 307 308 309 313 318 322 326 334 340 338 338 338 337 333 330 327 323 321 322 323 324 323 321 319 318 315 311 307 299 286 271 259 252 251 249 244 239 230 220 211 203 196 191 190 191 190 192 201 204 200 195
263 250 244 264 351 324 271 248 224 218 220 225 231 243 223 204 201 221 237 237 241 250 219 213 239 236 180 204 227 225 238 234 204 175 310 311 311 307 304 307 307 306 308 316 323 326 329 330 329 329 326 320 317 318 318 319 319 317 315 314 312 311 310 308 302 291 277 262 253 250 247 241 231 220 211 203 196 190 186 188 189 186 189 197 196 191 189
264 279 309 27 353 273 254 240 213 212 219 224 229 239 240 227 213 215 235 258 273 258 205 199 208 201 191 236 258 245 214 196 206 233 262 285 297 300 302 301 296 293 300 310 318 323 325 326 326 325 323 319 317 317 317 315 315 312 309 306 306 307 308 307 304 295 279 264 254 248 242 232 220 211 204 197 191 187 185 186 185 181 182 186 185 185 186
243 289 35 16 265 248 256 296 277 222 204 203 218 244 266 267 267 270 286 298 273 238 221 209 201 219 268 298 280 256 230 187 186 220 298 303 300 300 302 301 298 302 308 313 317 320 322 323 323 322 322 321 319 317 318 315 312 309 304 299 298 300 302 304 303 295 279 263 250 242 232 220 210 202 197 191 186 184 183 182 181 178 177 180 180 179 181
204 120 122 191 245 270 304 322 324 3 42 67 207 281 314 326 278 254 286 290 272 263 261 253 260 293 309 321 286 251 235 206 192 206 278 281 276 282 286 287 291 298 304 309 312 314 316 317 317 317 318 319 317 315 316 315 311 308 303 299 296 295 295 297 298 292 276 258 243 230 219 209 200 193 189 186 183 180 177 175 177 177 176 177 176 175 177
163 168 210 242 292 310 314 323 343 18 18 28 156 227 297 309 264 192 336 331 318 311 305 311 334 351 11 360 315 282 255 234 228 238 255 254 255 272 282 288 292 297 303 307 309 310 311 311 312 314 316 316 313 311 313 313 310 306 301 298 297 295 291 290 292 288 271 250 233 219 208 200 192 188 185 182 178 175 172 171 172 173 171 169 168 169 171
118 125 284 309 324 288 268 265 283 268 201 213 180 143 250 301 292 203 354 350 323 298 302 326 354 25 35 344 294 287 280 260 252 261 270 270 273 279 287 292 295 300 306 310 312 311 306 305 308 312 314 314 310 306 307 308 306 302 298 296 294 291 288 287 289 285 266 242 225 211 199 192 188 184 181 178 174 171 170 167 164 163 161 156 151 149 144
102 126 225 241 214 239 246 257 279 279 182 175 107 81 229 276 299 265 302 346 322 285 276 294 86 90 41 269 264 266 268 266 262 265 274 280 281 283 288 291 292 299 306 310 312 310 304 302 307 311 311 310 306 300 299 301 299 296 292 292 291 288 287 287 286 276 256 233 214 199 186 180 176 170 166 165 163 162 161 157 153 152 151 144 138 135 134
206 156 205 238 230 238 237 247 274 284 148 121 92 4 258 269 290 263 205 301 303 279 254 199 145 177 223 241 263 270 251 244 246 241 252 270 278 283 289 292 294 300 305 306 307 306 302 302 306 308 307 306 300 293 293 293 290 287 288 291 291 289 287 285 276 258 237 215 200 189 180 173 163 149 139 140 143 144 144 145 145 144 142 134 127 131 142
207 187 218 267 264 245 239 252 267 273 149 118 135 221 232 263 296 283 227 252 273 262 236 187 185 226 233 237 277 295 298 289 274 261 265 275 281 286 290 295 300 302 302 303 302 300 301 303 303 303 303 299 291 287 286 283 281 285 289 291 290 287 282 270 245 223 207 193 182 173 165 156 148 142 138 135 135 135 136 139 141 139 137 131 123 127 282
201 183 190 286 285 248 214 244 275 294 105 171 227 229 224 245 281 292 277 266 268 258 242 220 223 252 265 272 283 291 294 293 289 287 288 287 286 289 291 296 301 301 300 301 298 297 301 303 299 298 298 291 283 280 276 274 279 286 291 292 287 276 256 226 201 186 175 166 157 149 142 136 133 135 136 137 139 141 142 144 144 144 146 144 133 338 307
225 139 140 285 273 241 198 240 317 8 102 232 267 284 267 233 247 279 281 268 265 259 254 253 252 265 279 282 280 280 279 279 280 285 290 288 286 288 289 293 300 301 297 296 295 295 300 301 297 298 296 285 277 273 271 275 283 287 290 290 276 241 205 183 170 159 151 146 141 137 135 132 129 130 133 135 141 146 147 148 150 150 149 144 118 323 318
140 163 193 210 221 214 180 171 215 202 216 257 278 286 276 255 249 269 275 273 269 255 253 271 276 279 285 286 287 289 288 288 286 284 286 288 289 291 291 295 303 302 295 294 296 298 301 301 299 300 295 281 274 272 275 281 286 286 284 271 226 190 172 160 151 144 140 137 134 133 132 130 128 132 139 143 147 149 148 148 150 148 140 117 339 327 323
202 202 228 251 260 263 234 197 210 232 269 284 272 244 252 263 255 252 278 288 285 275 266 272 277 280 283 287 291 293 292 290 287 285 286 285 287 291 294 298 304 302 296 296 297 298 302 304 304 301 292 278 275 279 285 288 286 277 257 210 176 162 154 148 143 138 135 133 132 131 131 131 133 141 148 149 150 153 154 152 150 144 124 360 335 329 326
290 260 260 270 275 280 275 245 238 252 274 284 277 248 248 258 258 262 271 271 275 281 282 280 277 274 276 282 285 286 286 286 285 285 287 287 287 287 289 295 300 300 299 299 297 297 302 307 307 298 286 277 278 288 297 296 276 236 186 161 151 145 142 140 137 134 132 132 133 134 136 137 139 143 146 145 146 154 160 157 147 121 48 356 337 330 328
311 292 288 290 271 271 277 278 279 279 272 268 264 248 246 256 266 272 271 266 268 273 274 273 271 271 272 277 281 284 284 284 284 284 285 285 283 281 283 290 295 296 297 297 296 295 298 303 303 287 274 269 270 360 35 63 131 141 132 126 124 126 130 132 132 132 132 133 135 136 138 140 140 137 137 137 138 144 148 140 119 87 30 353 340 335 332
246 257 273 283 281 280 282 278 276 284 286 281 273 266 266 273 278 277 274 272 272 271 271 271 270 274 277 273 274 278 279 278 279 279 276 275 275 278 284 289 291 292 290 289 289 288 289 292 286 254 234 186 128 98 83 94 112 114 111 109 109 110 116 121 125 127 128 130 133 133 134 134 133 134 135 134 131 130 126 112 94 68 21 359 352 346 341
281 275 274 284 296 295 289 279 264 256 263 272 280 286 289 289 287 284 281 275 266 263 270 273 271 275 276 270 267 270 271 270 270 267 266 265 267 274 281 285 287 288 286 285 284 284 284 280 247 199 178 156 135 111 98 101 107 107 107 110 113 116 119 121 123 125 128 131 133 136 136 135 133 133 133 131 128 123 113 99 81 54 28 18 9 359 354
279 269 271 283 299 291 284 287 284 267 256 265 277 282 282 278 273 272 273 275 273 267 265 264 261 264 267 266 264 264 262 263 262 260 260 261 265 271 277 281 285 285 283 284 283 281 281 266 208 176 158 153 147 126 115 114 115 117 119 124 130 134 134 134 137 139 140 141 141 141 140 137 134 131 128 125 124 119 111 104 91 72 56 43 28 13 5
253 261 272 274 266 267 274 279 283 278 267 268 273 275 276 274 270 262 258 267 276 277 271 263 252 246 255 261 263 261 262 264 262 259 257 257 263 272 275 278 282 283 284 285 282 278 276 245 189 168 152 151 151 140 135 136 138 142 146 151 154 154 150 150 154 154 152 150 146 140 136 133 133 133 131 129 127 123 120 113 95 77 62 48 36 23 13
272 277 283 283 275 274 276 278 283 284 276 265 267 271 272 272 271 265 255 253 257 264 273 271 260 251 250 256 257 256 259 262 259 255 256 259 265 272 274 275 277 278 280 283 282 278 268 218 178 163 157 161 157 150 151 158 162 164 167 170 171 170 166 166 164 159 155 152 145 140 139 138 138 139 140 140 138 135 127 110 88 72 59 46 36 29 21
270 278 287 289 281 279 282 285 285 278 269 267 268 269 268 265 264 263 258 253 253 254 261 272 270 263 258 256 257 254 253 258 258 256 262 270 274 273 273 273 272 272 274 278 279 272 244 197 173 160 162 170 169 165 167 170 171 175 178 181 181 177 172 169 164 159 156 152 147 145 148 150 150 151 152 152 147 141 136 123 100 77 56 38 24 22 21
259 276 288 288 281 279 282 287 285 276 272 276 278 275 272 270 268 266 263 262 265 264 261 264 272 273 269 262 258 257 253 259 267 270 271 274 274 273 273 272 272 273 277 277 270 249 207 181 168 162 167 175 174 173 175 177 182 191 195 194 191 182 173 169 166 164 164 161 156 155 156 157 158 156 155 153 147 146 154 160 156 125 70 41 25 20 19
271 275 283 288 290 288 275 267 276 290 298 295 289 284 282 280 278 277 274 273 274 276 274 272 273 277 275 266 258 259 261 267 280 292 293 286 282 281 277 273 273 277 278 269 248 213 183 169 163 166 177 182 180 181 186 189 195 204 209 208 204 192 181 176 174 172 171 168 164 162 162 161 160 157 156 155 150 151 164 184 213 199 108 54 37 28 22
276 267 255 261 277 284 278 272 277 285 288 285 280 279 285 288 286 283 282 284 287 288 288 285 276 268 269 268 257 256 281 329 337 336 328 313 302 289 276 268 266 267 260 233 201 178 165 161 164 172 182 187 189 192 196 200 205 210 211 214 213 202 189 185 182 178 176 174 170 168 167 163 161 164 165 159 153 167 205 273 287 240 106 52 39 34 29
284 281 266 258 266 274 274 273 276 279 279 280 281 281 284 290 292 286 280 283 290 296 296 293 279 256 250 342 37 48 37 27 10 351 337 330 324 305 274 244 214 188 165 154 152 150 151 157 165 171 179 189 195 196 198 205 214 216 215 217 213 200 191 190 189 184 180 177 177 179 177 173 175 179 176 169 202 245 259 295 318 128 90 42 28 27 24
296 298 293 286 286 286 282 276 275 277 279 285 291 288 280 277 281 284 283 285 290 285 282 285 299 73 74 62 59 57 52 44 35 26 18 16 21 26 55 110 114 106 96 100 115 127 138 150 159 162 171 188 196 200 207 221 226 222 222 218 203 191 189 191 189 184 180 179 184 191 192 191 195 195 188 213 262 259 270 305 336 123 106 47 29 25 19
300 303 302 299 301 305 302 293 285 284 289 293 295 294 293 287 281 283 290 290 279 272 279 48 72 72 66 63 65 64 58 50 43 38 40 44 48 52 64 77 83 78 71 78 94 108 120 128 131 135 160 185 198 207 217 227 227 218 212 196 178 174 181 183 178 174 175 179 186 192 191 190 195 200 220 258 266 268 285 302 290 130 95 59 41 29 18
303 307 309 308 308 312 311 307 304 307 311 310 303 297 294 290 287 291 297 290 275 166 83 75 72 70 68 66 64 59 51 45 41 37 37 42 48 54 63 70 74 74 72 75 83 93 98 96 93 102 141 174 195 202 205 208 205 194 180 165 158 163 171 170 164 162 165 169 172 167 161 164 176 207 250 269 275 283 297 301 150 130 92 62 48 27 12
308 313 315 314 314 315 314 312 313 312 310 307 299 291 287 286 286 291 306 351 56 75 77 75 72 71 68 63 56 49 45 45 41 35 30 31 38 49 62 70 72 71 68 68 73 78 81 80 81 91 115 139 158 168 170 173 174 169 160 156 157 160 158 152 150 152 152 146 137 132 136 141 142 137 287 300 305 320 3 119 133 124 82 52 43 25 10
292 299 304 306 309 310 307 305 306 303 299 298 298 302 335 35 58 62 63 66 71 74 77 78 75 71 67 62 54 48 46 44 39 32 28 28 32 43 61 72 72 68 64 62 63 65 69 76 83 91 100 109 117 125 136 149 158 159 156 155 154 147 138 134 137 139 133 124 122 123 120 112 101 88 78 75 76 80 90 99 102 92 65 51 48 38 21
278 286 296 300 302 299 295 294 292 288 289 299 330 51 63 67 74 76 73 72 75 77 79 79 76 71 65 60 52 46 43 44 45 42 39 36 35 42 54 61 61 60 58 55 53 53 58 69 81 87 90 92 97 103 116 134 143 144 145 146 141 134 130 130 130 126 121 119 118 113 105 98 94 89 85 85 84 83 84 82 74 66 58 51 46 38 24
302 305 307 307 306 302 297 294 292 290 306 9 67 80 76 73 75 77 77 75 73 73 74 74 71 66 60 54 48 45 43 45 50 51 48 44 44 48 52 51 48 48 50 46 42 44 54 65 75 83 85 86 89 95 100 107 116 122 128 131 129 126 126 125 122 118 117 115 110 104 99 97 95 91 87 85 80 76 74 69 62 55 51 44 36 29 22
325 324 319 314 313 317 327 343 19 67 77 74 72 75 77 76 75 74 74 72 69 68 69 68 66 65 61 56 53 50 47 46 52 55 54 51 50 50 48 43 38 38 40 34 29 38 53 63 71 79 83 82 83 87 90 94 105 116 122 123 123 121 120 117 115 113 111 107 103 101 98 96 92 86 80 75 71 66 62 58 52 48 44 37 31 26 21
338 339 342 342 347 13 37 46 60 76 82 78 72 71 75 79 79 77 75 71 67 68 68 66 65 65 62 57 52 48 44 43 48 53 55 55 54 52 47 40 35 34 33 29 33 45 57 65 71 77 81 82 83 86 92 101 110 115 115 113 114 114 112 110 109 106 102 99 97 95 92 88 83 77 69 63 59 55 51 47 42 35 29 25 22 19 15
351 355 5 14 27 52 64 64 65 71 76 77 74 72 74 78 80 79 76 72 72 74 73 69 67 65 59 52 46 43 41 42 47 51 54 59 60 57 52 45 40 39 40 44 50 56 62 68 73 75 77 80 83 85 90 97 103 106 106 105 106 106 103 101 100 96 92 91 88 84 80 76 69 63 57 52 48 44 40 37 33 28 24 21 17 12 9
5 6 20 34 47 64 72 72 69 70 75 79 80 79 80 81 81 80 78 76 76 78 78 75 72 67 59 54 50 46 46 49 50 51 54 58 58 57 51 42 38 41 48 53 57 60 63 67 71 72 72 75 78 80 82 86 91 95 97 97 97 95 92 89 87 84 80 77 74 71 68 63 59 55 51 45 42 38 33 29 26 23 20 17 13 9 5
12 24 44 55 62 71 78 80 79 77 78 80 82 84 87 88 86 83 82 82 81 80 79 78 77 73 70 71 69 63 59 59 57 56 57 56 52 50 46 36 33 40 50 55 59 62 65 66 69 70 71 73 75 77 79 81 82 83 83 84 85 85 83 80 77 73 69 66 64 63 61 60 57 53 48 43 40 35 30 25 23 21 18 15 10 6 2
23 40 56 63 67 74 80 84 85 83 81 83 86 88 90 92 91 90 89 88 86 83 80 80 82 82 80 79 77 70 65 63 62 61 62 60 55 53 51 41 37 44 53 56 57 60 61 61 63 66 68 70 72 72 73 74 74 73 72 72 73 75 74 71 68 65 61 60 60 59 59 60 58 52 48 45 41 35 30 26 23 20 17 14 9 4 2
39 56 67 70 74 80 83 86 86 84 82 84 89 93 95 96 98 98 95 91 88 87 85 83 84 83 79 76 73 68 62 60 61 63 65 65 63 63 61 54 47 49 53 54 55 56 56 56 58 59 61 65 68 69 69 70 69 67 65 64 64 66 66 64 60 57 55 55 56 57 58 60 59 56 53 51 47 43 41 38 33 27 22 17 12 7 4
45 62 73 78 82 85 87 88 89 87 84 87 94 100 102 102 102 102 100 96 91 90 90 87 84 82 79 74 70 65 59 56 58 61 64 64 60 57 57 57 54 52 51 52 54 55 55 54 55 56 57 61 65 66 68 69 67 65 64 63 61 60 58 57 58 60 60 61 61 62 63 64 64 61 57 55 54 52 50 47 44 40 36 32 26 19 15
47 59 75 84 86 85 85 87 90 93 96 98 99 98 100 101 101 101 100 98 94 92 92 92 90 88 86 83 79 76 72 68 65 64 64 63 57 51 50 52 52 51 51 52 53 53 52 51 51 53 56 61 64 66 67 69 71 71 72 71 69 67 65 65 67 70 71 70 70 71 70 70 69 66 62 60 59 58 57 54 52 50 46 42 37 31 28
52 64 76 81 83 88 94 99 103 104 103 99 94 90 93 100 100 99 99 100 98 95 95 94 94 93 93 93 92 90 85 79 73 69 69 72 71 64 56 53 50 49 49 51 53 53 52 51 51 54 57 61 66 69 71 72 74 75 77 79 78 77 77 77 76 75 73 73 73 73 72 72 73 73 70 67 64 62 60 57 56 55 52 48 43 39 36
66 76 84 86 89 97 105 108 108 106 102 98 93 94 101 106 106 104 104 105 104 101 98 95 93 93 93 93 94 94 91 86 81 76 74 75 74 66 58 53 50 47 47 50 52 53 52 53 56 58 60 62 65 68 70 73 75 75 77 78 79 79 79 79 78 77 76 77 76 75 74 74 74 73 71 67 62 59 56 54 54 55 54 51 47 43 40
89 88 98 107 109 108 110 112 110 107 108 112 114 114 116 117 115 113 113 112 110 108 106 101 98 97 95 92 90 90 87 84 84 86 85 80 74 68 62 58 53 49 48 50 51 51 51 52 55 56 56 56 58 59 61 64 68 71 72 72 74 77 77 77 76 73 71 71 73 74 72 70 67 64 61 59 57 54 52 52 52 52 53 53 50 46 43
124 120 123 128 125 123 125 126 123 122 127 130 127 125 126 124 118 114 115 116 112 108 106 105 102 99 97 93 90 87 80 78 84 97 99 88 77 71 67 63 57 53 51 51 52 51 50 50 51 51 50 50 51 53 53 52 53 58 62 64 66 69 72 75 77 77 74 71 70 69 67 65 61 56 53 54 54 52 49 51 53 53 54 54 52 47 44
162 173 185 179 174 178 173 159 150 150 149 143 137 135 135 130 122 118 120 119 114 108 105 103 101 99 96 92 91 90 87 83 86 93 94 86 78 74 72 67 64 61 58 56 55 53 52 51 51 50 49 48 48 51 53 51 46 45 49 51 52 57 63 67 69 71 71 67 64 62 60 60 58 53 48 48 48 44 41 45 50 50 50 51 49 44 40
187 190 195 193 192 198 200 187 171 163 158 151 148 148 145 137 131 130 131 128 123 117 111 106 102 102 100 97 94 94 92 88 86 86 85 81 79 78 76 72 70 67 63 60 58 54 50 49 48 48 49 50 50 48 49 50 49 44 40 39 42 49 55 56 53 52 50 48 47 49 52 52 52 49 42 37 35 34 33 35 37 37 38 41 41 38 35
195 191 183 174 172 179 189 187 178 172 166 162 161 160 155 146 141 142 143 142 137 131 125 119 114 111 106 102 98 95 91 83 77 74 71 67 65 67 69 72 75 74 69 64 60 54 47 43 42 41 43 47 50 47 43 43 43 39 37 38 41 45 49 51 50 46 40 34 32 36 41 44 45 45 41 35 31 32 33 31 27 26 29 34 34 33 33